Flag for Iceland Weather past 2 weeks in Keflavík, Iceland

Now
50 °F

Drizzle. Fog.


Feels Like: 48 °F
Forecast: 46 / 51 °F
Wind: 6 mph from West

Location: Keflavikurflugvollur

Current Time: Sep 19, 2014 at 4:48:58 AM

Latest Report: Sep 19, 2014 at 4:00 AM


Visibility: 4 mi

Pressure: 29.86 "Hg

Humidity: 100%

Dew point: 50 °F

Location of KeflavíkLocation

Historic Weather in Keflavík — Graph

°F

Keflavík temperature yesterday

Maximum temperature yesterday: 52 °F (at 1:30 PM)
Minimum temperature yesterday: 48 °F (at 7:00 AM)
Average temperature yesterday: 51 °F

Past Weeks' High & Low Weather Summary

 TemperatureHumidityPressure
High55 °F (Sep 4, 1:00 PM)100% (Sep 4, 3:00 AM)30.21 "Hg (Sep 4, 3:00 AM)
Low45 °F (Sep 5, 5:30 AM)54% (Sep 10, 7:00 AM)29.50 "Hg (Sep 9, 2:00 AM)
Average50 °F89%29.92 "Hg
* Reported Sep 4 3:00 AM — Sep 19 3:30 AM, Keflavík, Weather by CustomWeather, © 2014

Note: Actual official high and low records may vary slightly from our data, if they occured in-between our weather recording intervals... More about our weather records

Advertising

Keflavík weather history for previous 24 hours

 ConditionsComfort  
Time TempWeatherWind HumidityBarometerVisibility
3:30 AM
Sep 19
50 °FPassing clouds.7 mph100%29.86 "Hg2 mi
3:00 AM50 °FDrizzle. Mostly cloudy.7 mph100%29.86 "Hg2 mi
2:30 AM50 °FPartly cloudy.7 mph100%29.86 "Hg4 mi
2:00 AM50 °FPartly cloudy.7 mph100%29.86 "Hg4 mi
1:30 AM50 °FDrizzle. Mostly cloudy.8 mph100%29.86 "Hg4 mi
1:00 AM52 °FDrizzle. Fog.8 mph100%29.86 "Hg1 mi
12:30 AM52 °FDrizzle. Fog.10 mph100%29.86 "Hg5 mi
12:00 AM52 °FRain. Partly cloudy.9 mph100%29.86 "HgN/A
11:30 PM
Sep 18
52 °FRain. Partly cloudy.10 mph100%29.89 "Hg4 mi
11:00 PM52 °FLight rain. Partly cloudy.12 mph100%29.89 "HgN/A
10:30 PM52 °FRain. Overcast.12 mph100%29.89 "HgN/A
10:00 PM52 °FRain. Partly cloudy.13 mph100%29.89 "HgN/A
9:30 PM52 °FRain. Partly cloudy.13 mph100%29.89 "HgN/A
9:00 PM52 °FRain. Partly cloudy.10 mph100%29.89 "HgN/A
8:30 PM52 °FLight rain. Passing clouds.10 mph100%29.89 "HgN/A
8:00 PM52 °FLight rain. Partly cloudy.13 mph100%29.89 "HgN/A
7:30 PM52 °FDrizzle. Broken clouds.10 mph100%29.89 "HgN/A
7:00 PM52 °FDrizzle. Broken clouds.10 mph100%29.89 "HgN/A
6:30 PM52 °FDrizzle. Cloudy.12 mph100%29.89 "Hg2 mi
6:00 PM52 °FDrizzle. Cloudy.10 mph100%29.89 "Hg2 mi
5:30 PM52 °FDrizzle. Broken clouds.9 mph100%29.89 "Hg2 mi
5:00 PM52 °FDrizzle. Broken clouds.10 mph100%29.92 "Hg3 mi
4:30 PM52 °FDrizzle. Cloudy.12 mph100%29.92 "Hg2 mi
4:00 PM52 °FDrizzle. Cloudy.10 mph100%29.92 "Hg2 mi
3:30 PM52 °FDrizzle. More clouds than sun.9 mph100%29.92 "Hg2 mi
3:00 PM52 °FDrizzle. Cloudy.8 mph94%29.92 "Hg1 mi
2:30 PM52 °FDrizzle. Mostly cloudy.8 mph100%29.92 "Hg1 mi
2:00 PM52 °FDrizzle. Mostly cloudy.8 mph100%29.92 "Hg1 mi
1:30 PM52 °FDrizzle. Mostly cloudy.8 mph100%29.95 "Hg1 mi
1:00 PM50 °FDrizzle. Mostly cloudy.8 mph100%29.95 "Hg1 mi
12:30 PM50 °FDrizzle. Mostly cloudy.6 mph100%29.95 "Hg2 mi
12:00 PM50 °FDrizzle. Mostly cloudy.3 mph100%29.95 "Hg4 mi
11:30 AM50 °FLight rain. Overcast.5 mph100%29.95 "HgN/A
11:00 AM50 °FDrizzle. Mostly cloudy.5 mph100%29.98 "Hg3 mi
10:30 AM50 °FDrizzle. Mostly cloudy.5 mph100%29.98 "Hg2 mi
10:00 AM50 °FDrizzle. Mostly cloudy.5 mph100%29.98 "Hg2 mi
9:30 AM50 °FDrizzle. Mostly cloudy.6 mph100%29.98 "Hg2 mi
9:00 AM50 °FDrizzle. Mostly cloudy.5 mph100%29.98 "Hg1 mi
8:30 AM50 °FDrizzle. More clouds than sun.7 mph100%29.98 "Hg1 mi
8:00 AM50 °FBroken clouds.6 mph100%29.98 "Hg1 mi
7:30 AM50 °FRain. Fog.6 mph100%30.01 "Hg1 mi
7:00 AM48 °FLight rain. Broken clouds.6 mph100%30.01 "Hg2 mi
6:30 AM50 °FLight rain. Partly cloudy.7 mph94%30.01 "Hg2 mi
6:00 AM50 °FLight rain. Partly cloudy.9 mph100%30.01 "Hg2 mi
5:30 AM50 °FLight rain. Passing clouds.8 mph100%30.01 "Hg4 mi
5:00 AM50 °FCool.10 mph94%30.01 "Hg5 mi
4:30 AM50 °FLight rain. Fog.9 mph94%30.01 "Hg5 mi
4:00 AM50 °FLight rain. Fog.8 mph94%30.04 "Hg4 mi
Weather by CustomWeather, © 2014

See weather overviewHow to use our weather pages